Beaufort, SC

7:44 PM EDT on August 19, 2017 (GMT -0400)
Beaufort

Weather History for KARW - November, 2013

Change the Weather History Date:

Saturday, November 2, 2013

  Actual Average (KNBC) Record (KNBC)
Temperature  
Mean Temperature 66 °F -  
Max Temperature 73 °F 75 °F 87 °F (1961)
Min Temperature 60 °F 56 °F 32 °F (1955)
Cooling Degree Days 2    
Growing Degree Days 16 (Base 50)    
Moisture  
Dew Point 59 °F    
Average Humidity 81    
Maximum Humidity 100    
Minimum Humidity 41    
Precipitation  
Precipitation 0.00 in - - ()
Sea Level Pressure  
Sea Level Pressure 29.84 in    
Wind  
Wind Speed 8 mph (West)    
Max Wind Speed 17 mph    
Max Gust Speed 22 mph    
Visibility 7 miles    
Events Rain    
Averages and records for this station are not official NWS values.
T = Trace of Precipitation, MM = Missing Value Source: NWS Daily Summary

Daily Weather History Graph

Daily Weather History Graph

Search for Another Location

Airport or City:

Trip Planner

Search our weather history database for the weather conditions in past years. The results will help you decide how hot, cold, wet, or windy it might be!

Date:

Astronomy

Nov. 02, 2013 Rise Set
Actual Time 7:40 AM EDT 6:30 PM EDT
Civil Twilight 7:15 AM EDT 6:56 PM EDT
Nautical Twilight 6:46 AM EDT 7:25 PM EDT
Astronomical Twilight 6:17 AM EDT 7:54 PM EDT
Moon 6:38 AM EDT (11/2) 6:00 PM EDT (11/2)
Length of Visible Light 11h 41m
Length of Day
10h 50m
Waning Crescent, 1% of the Moon is Illuminated
Nov 2
Waning Crescent
Nov 3
New
Nov 10
First Quarter
Nov 17
Full
Nov 25
Last Quarter

Hourly Weather History & Observations

Time (EDT) Temp. Dew Point Humidity Pressure Visibility Wind Dir Wind Speed Gust Speed Precip Events Conditions
12:15 AM 69.8 °F 69.8 °F 100% 29.80 in 4.0 mi West 9.2 mph - N/A Rain Heavy Rain
12:35 AM 68.0 °F 68.0 °F 100% 29.79 in 2.0 mi West 6.9 mph - N/A Rain Heavy Rain
12:55 AM 68.0 °F 68.0 °F 100% 29.79 in 4.0 mi West 12.7 mph - N/A Rain Rain
1:15 AM 68.0 °F 68.0 °F 100% 29.78 in 5.0 mi West 15.0 mph 19.6 mph N/A Rain Rain
1:35 AM 64.4 °F 64.4 °F 100% 29.78 in 5.0 mi WSW 5.8 mph - N/A Rain Rain
1:55 AM 64.4 °F 64.4 °F 100% 29.79 in 5.0 mi WSW 5.8 mph - N/A Rain Heavy Rain
2:15 AM 64.4 °F 64.4 °F 100% 29.78 in 4.0 mi WSW 5.8 mph - N/A Rain Rain
2:35 AM 64.4 °F 64.4 °F 100% 29.78 in 7.0 mi WSW 4.6 mph - N/A Rain Light Rain
2:55 AM 64.4 °F 64.4 °F 100% 29.78 in 10.0 mi WSW 6.9 mph - N/A Rain Light Rain
3:15 AM 64.4 °F 64.4 °F 100% 29.77 in 7.0 mi SW 4.6 mph - N/A   Overcast
3:35 AM 66.2 °F 66.2 °F 100% 29.77 in 7.0 mi WSW 3.5 mph - N/A   Overcast
3:55 AM 66.2 °F 66.2 °F 100% 29.77 in 7.0 mi West 5.8 mph - N/A   Mostly Cloudy
4:15 AM 66.2 °F 66.2 °F 100% 29.78 in 7.0 mi West 6.9 mph - N/A   Overcast
4:35 AM 66.2 °F 66.2 °F 100% 29.78 in 7.0 mi West 6.9 mph - N/A   Overcast
4:55 AM 66.2 °F 66.2 °F 100% 29.78 in 7.0 mi WNW 5.8 mph - N/A   Overcast
5:15 AM 66.2 °F 66.2 °F 100% 29.78 in 7.0 mi WNW 4.6 mph - N/A   Scattered Clouds
5:35 AM 64.4 °F 64.4 °F 100% 29.79 in 5.0 mi West 5.8 mph - N/A   Scattered Clouds
5:55 AM 64.4 °F 64.4 °F 100% 29.79 in 7.0 mi West 5.8 mph - N/A   Scattered Clouds
6:15 AM 64.4 °F 64.4 °F 100% 29.80 in 10.0 mi West 5.8 mph - N/A   Clear
6:35 AM 64.4 °F 64.4 °F 100% 29.79 in 10.0 mi West 4.6 mph - N/A   Mostly Cloudy
6:55 AM 64.4 °F 64.4 °F 100% 29.81 in 7.0 mi WSW 6.9 mph - N/A   Mostly Cloudy
7:15 AM 64.4 °F 64.4 °F 100% 29.82 in 7.0 mi West 5.8 mph - N/A   Mostly Cloudy
7:35 AM 64.4 °F 64.4 °F 100% 29.82 in 7.0 mi West 5.8 mph - N/A   Scattered Clouds
7:55 AM 64.4 °F 64.4 °F 100% 29.82 in 7.0 mi West 8.1 mph - N/A   Clear
8:15 AM 64.4 °F 64.4 °F 100% 29.85 in 7.0 mi West 6.9 mph - N/A   Clear
8:35 AM 64.4 °F 64.4 °F 100% 29.85 in 7.0 mi West 5.8 mph - N/A   Clear
8:55 AM 64.4 °F 62.6 °F 94% 29.85 in 7.0 mi West 8.1 mph - N/A   Clear
9:15 AM 64.4 °F 62.6 °F 94% 29.85 in 5.0 mi WNW 8.1 mph - N/A   Clear
9:35 AM 64.4 °F 62.6 °F 94% 29.85 in 7.0 mi WNW 6.9 mph - N/A   Clear
9:55 AM 64.4 °F 60.8 °F 88% 29.85 in 7.0 mi WNW 9.2 mph - N/A   Clear
10:15 AM 64.4 °F 60.8 °F 88% 29.86 in 7.0 mi WNW 5.8 mph - N/A   Clear
10:35 AM 64.4 °F 60.8 °F 88% 29.86 in 5.0 mi WNW 8.1 mph - N/A   Haze
10:55 AM 66.2 °F 60.8 °F 83% 29.86 in 7.0 mi WNW 9.2 mph - N/A   Clear
11:15 AM 68.0 °F 59.0 °F 73% 29.86 in 7.0 mi NW 11.5 mph 17.3 mph N/A   Clear
11:35 AM 68.0 °F 59.0 °F 73% 29.85 in 7.0 mi NW 10.4 mph - N/A   Clear
11:55 AM 69.8 °F 59.0 °F 68% 29.86 in 7.0 mi WNW 13.8 mph 17.3 mph N/A   Clear
1:15 PM 68.0 °F 57.2 °F 68% 29.85 in 10.0 mi West 10.4 mph - N/A   Clear
1:35 PM 68.0 °F 57.2 °F 68% 29.85 in 10.0 mi West 10.4 mph - N/A   Clear
1:55 PM 68.0 °F 55.4 °F 64% 29.82 in 10.0 mi WNW 10.4 mph - N/A   Clear
2:15 PM 68.0 °F 55.4 °F 64% 29.81 in 10.0 mi WNW 11.5 mph - N/A   Clear
2:35 PM 69.8 °F 55.4 °F 60% 29.82 in 10.0 mi WNW 11.5 mph - N/A   Clear
2:55 PM 69.8 °F 55.4 °F 60% 29.81 in 10.0 mi WNW 9.2 mph - N/A   Clear
3:15 PM 71.6 °F 55.4 °F 57% 29.81 in 7.0 mi West 8.1 mph 16.1 mph N/A   Clear
3:35 PM 73.4 °F 50.0 °F 44% 29.81 in 7.0 mi WNW 12.7 mph 20.7 mph N/A   Clear
3:55 PM 71.6 °F 46.4 °F 41% 29.81 in 7.0 mi WNW 17.3 mph 21.9 mph N/A   Clear
4:15 PM 71.6 °F 50.0 °F 46% 29.82 in 7.0 mi WNW 10.4 mph - N/A   Clear
4:35 PM 71.6 °F 51.8 °F 50% 29.82 in 7.0 mi WNW 12.7 mph - N/A   Clear
4:55 PM 71.6 °F 51.8 °F 50% 29.82 in 7.0 mi WNW 10.4 mph - N/A   Clear
5:15 PM 71.6 °F 51.8 °F 50% 29.82 in 7.0 mi West 9.2 mph - N/A   Clear
5:35 PM 71.6 °F 53.6 °F 53% 29.83 in 10.0 mi West 9.2 mph - N/A   Clear
5:55 PM 69.8 °F 53.6 °F 56% 29.83 in 7.0 mi WNW 8.1 mph - N/A   Clear
6:15 PM 69.8 °F 53.6 °F 56% 29.83 in 7.0 mi WNW 4.6 mph - N/A   Clear
6:35 PM 64.4 °F 55.4 °F 73% 29.84 in 7.0 mi West 3.5 mph - N/A   Clear
6:55 PM 62.6 °F 55.4 °F 77% 29.86 in 10.0 mi West 4.6 mph - N/A   Clear
7:15 PM 62.6 °F 55.4 °F 77% 29.86 in 7.0 mi West 4.6 mph - N/A   Clear
7:35 PM 62.6 °F 55.4 °F 77% 29.88 in 7.0 mi West 5.8 mph - N/A   Clear
7:55 PM 60.8 °F 55.4 °F 82% 29.89 in 7.0 mi West 5.8 mph - N/A   Clear
8:15 PM 62.6 °F 53.6 °F 72% 29.89 in 7.0 mi West 5.8 mph - N/A   Clear
8:35 PM 64.4 °F 53.6 °F 68% 29.90 in 7.0 mi West 5.8 mph - N/A   Clear
8:55 PM 62.6 °F 51.8 °F 68% 29.91 in 7.0 mi West 6.9 mph - N/A   Clear
9:15 PM 62.6 °F 51.8 °F 68% 29.92 in 7.0 mi West 5.8 mph - N/A   Clear
9:35 PM 62.6 °F 51.8 °F 68% 29.93 in 7.0 mi WNW 3.5 mph - N/A   Clear
9:55 PM 60.8 °F 51.8 °F 72% 29.94 in 7.0 mi WNW 5.8 mph - N/A   Clear
10:15 PM 62.6 °F 51.8 °F 68% 29.95 in 7.0 mi WNW 4.6 mph - N/A   Clear
10:35 PM 60.8 °F 51.8 °F 72% 29.96 in 10.0 mi WNW 3.5 mph - N/A   Clear
10:55 PM 62.6 °F 51.8 °F 68% 29.96 in 10.0 mi WNW 3.5 mph - N/A   Clear
11:15 PM 60.8 °F 51.8 °F 72% 29.96 in 7.0 mi WNW 3.5 mph - N/A   Clear
11:35 PM 60.8 °F 51.8 °F 72% 29.97 in 7.0 mi WNW 8.1 mph - N/A   Clear
11:55 PM 60.8 °F 51.8 °F 72% 29.97 in 10.0 mi NW 8.1 mph - N/A   Clear